[[[{"header":{"parameterUnit":"kt","parameterCategory":2,"dx":1,"dy":1,"la1":30.253999710083008,"la2":30.299108505249023,"lo1":-89.0895004272461,"lo2":-89.04439544677734,"nx":28,"ny":28,"refTime":"2022-10-21T21:00:00:Z","depth":0,"parameterNumber":1,"parameterNumberName":"U-component_of_WINDS"},"data":[-5.5471,-5.5628,-5.5682,-5.5887,-5.5971,-5.612,-5.6192,-5.629,-5.6382,-5.6568,-5.6685,-5.6757,-5.6872,-5.7026,-5.7156,-5.7186,-5.7237,-5.7252,-5.7284,-5.7165,-5.7152,-5.714,-5.7105,-5.7263,-5.7263,-5.7398,-5.74,-5.74,-5.5377,-5.5461,-5.5585,-5.5743,-5.585,-5.5868,-5.5996,-5.6085,-5.6219,-5.6334,-5.6453,-5.6621,-5.6763,-5.6875,-5.7021,-5.7096,-5.7113,-5.7132,-5.7126,-5.7144,-5.7019,-5.6981,-5.7115,-5.7115,-5.7115,-5.7115,-5.7115,-5.7115,-5.5221,-5.5313,-5.544,-5.5576,-5.5671,-5.5777,-5.5875,-5.5961,-5.6085,-5.6242,-5.6285,-5.6439,-5.6565,-5.6769,-5.6851,-5.6973,-5.6963,-5.7001,-5.701,-5.7018,-5.7018,-5.6812,-5.7001,-5.7001,-5.7001,-5.7,-5.7,0,-5.5123,-5.5162,-5.5286,-5.5425,-5.5528,-5.5643,-5.5757,-5.5819,-5.5923,-5.6022,-5.6168,-5.6263,-5.6449,-5.6594,-5.6744,-5.6823,-5.6852,-5.6862,-5.6888,-5.6867,-5.683,-5.685,-5.6642,-5.6856,-5.6855,-5.6854,-5.6853,-5.6853,-5.4968,-5.507,-5.523,-5.5309,-5.5386,-5.5513,-5.5601,-5.5685,-5.5774,-5.5928,-5.6007,-5.6154,-5.6275,-5.6503,-5.6604,-5.6744,-5.676,-5.6834,-5.6781,-5.6757,-5.6759,-5.6751,-5.6761,-5.6842,-5.6844,-5.6845,-5.6846,0,-5.4875,-5.4964,-5.5141,-5.529,-5.5331,-5.5434,-5.5563,-5.566,-5.5734,-5.5878,-5.5916,-5.6033,-5.6176,-5.6267,-5.645,-5.6492,-5.6664,-5.6677,-5.662,-5.6627,-5.6701,-5.6692,-5.6933,-5.6969,-5.6808,-5.681,-5.6811,0,-5.4777,-5.4909,-5.5034,-5.5132,-5.5281,-5.5362,-5.5507,-5.5585,-5.5696,-5.581,-5.5858,-5.5964,-5.6063,-5.6183,-5.6247,-5.6403,-5.6439,-5.648,-5.6495,-5.6475,-5.6469,-5.6522,-5.6513,-5.6527,-5.6526,-5.6524,-5.6523,0,-5.4621,-5.4843,-5.5003,-5.5068,-5.5241,-5.5314,-5.539,-5.5515,-5.56,-5.5726,-5.5782,-5.5924,-5.6001,-5.611,-5.6189,-5.6149,-5.6384,-5.6345,-5.6426,-5.6424,-5.6471,-5.6467,-5.6659,-5.6522,-5.6521,-5.6521,-5.6521,0,-5.4555,-5.4679,-5.4897,-5.5042,-5.5097,-5.5203,-5.5346,-5.5458,-5.5586,-5.5633,-5.5733,-5.5775,-5.592,-5.5875,-5.6077,-5.6002,-5.6075,-5.6129,-5.6136,-5.6153,-5.6099,-5.6193,-5.6369,-5.639,-5.617,-5.6168,-5.6165,0,-5.4351,-5.4595,-5.4666,-5.4872,-5.4997,-5.5041,-5.516,-5.5272,-5.5344,-5.5461,-5.5541,-5.5675,-5.5661,-5.5715,-5.5803,-5.5891,-5.5989,-5.5881,-5.6048,-5.6053,-5.601,-5.6174,-5.6176,-5.632,-5.6129,-5.6133,-5.6136,0,-5.4203,-5.4412,-5.4444,-5.4521,-5.4682,-5.4787,-5.4925,-5.5075,-5.5148,-5.527,-5.5387,-5.5578,-5.5575,-5.5664,-5.5713,-5.58,-5.5925,-5.5785,-5.5789,-5.5805,-5.6119,-5.612,-5.6144,-5.5939,-5.5944,-5.5947,-5.6107,0,-5.408,-5.4214,-5.4305,-5.4474,-5.457,-5.4705,-5.4799,-5.4888,-5.4925,-5.4997,-5.5172,-5.5289,-5.5442,-5.5494,-5.5532,-5.5702,-5.5688,-5.5682,-5.5643,-5.5751,-5.5806,-5.5828,-5.5554,-5.5553,-5.5553,-5.5552,0,0,-5.3861,-5.4055,-5.4129,-5.4265,-5.4349,-5.4393,-5.4528,-5.4617,-5.4794,-5.4852,-5.4831,-5.5116,-5.5212,-5.5414,-5.5455,-5.5518,-5.5557,-5.5516,-5.5699,-5.5715,-5.573,-5.5787,-5.5809,-5.5552,-5.5551,-5.5551,-5.5551,0,-5.3835,-5.3931,-5.4063,-5.4158,-5.43,-5.437,-5.4402,-5.4551,-5.4603,-5.4775,-5.4809,-5.4925,-5.5152,-5.5248,-5.5327,-5.5495,-5.5513,-5.5535,-5.5592,-5.5691,-5.5708,-5.5723,-5.5782,-5.5802,-5.555,-5.555,-5.555,0,-5.3705,-5.3814,-5.3888,-5.4084,-5.4178,-5.4306,-5.4289,-5.4425,-5.4522,-5.4562,-5.4732,-5.481,-5.4947,-5.5127,-5.5211,-5.5194,-5.5467,-5.5398,-5.5404,-5.5415,-5.5515,-5.5535,-5.5553,-5.5319,-5.5318,-5.5317,0,0,-5.367,-5.3795,-5.3938,-5.4086,-5.4142,-5.4248,-5.4326,-5.4371,-5.4493,-5.4541,-5.4641,-5.4759,-5.4892,-5.4977,-5.5106,-5.529,-5.5325,-5.5366,-5.5377,-5.5386,-5.54,-5.5503,-5.5523,-5.5312,-5.5312,-5.5312,0,0,-5.3653,-5.3824,-5.3839,-5.4022,-5.4136,-5.4287,-5.4374,-5.4397,-5.4522,-5.4517,-5.46,-5.4635,-5.4805,-5.488,-5.4808,-5.5094,-5.5054,-5.5073,-5.5038,-5.5053,-5.5064,-5.5041,-5.4806,0,0,0,0,0,-5.3674,-5.3803,-5.3815,-5.3859,-5.4107,-5.428,-5.4313,-5.4383,-5.4353,-5.442,-5.4507,-5.4522,-5.4858,-5.4797,-5.484,-5.4919,-5.5254,-5.5264,-5.5274,-5.5273,-5.5288,-5.53,0,0,0,0,0,0,-5.3692,-5.3746,-5.3812,-5.3967,-5.4023,-5.4276,-5.424,-5.4263,-5.4348,-5.4348,-5.4505,-5.4527,-5.4591,-5.4779,-5.4817,-5.4891,-5.4793,-5.5258,-5.5267,-5.5275,-5.5278,-5.529,-5.53,0,0,0,0,0,-5.3707,-5.3751,-5.413,-5.3965,-5.4015,-5.4139,-5.4236,-5.4255,-5.4321,-5.4456,-5.4479,-5.4367,-5.4591,-5.4628,-5.4802,-5.4871,-5.4767,-5.4781,-5.5264,-5.5271,-5.5277,-5.5284,0,0,0,0,0,0,-5.3718,-5.377,-5.4141,-5.4159,-5.3922,-5.4127,-5.4161,-5.4247,-5.4426,-5.445,-5.4322,-5.432,-5.4593,-5.4621,-5.465,-5.4861,-5.4746,-5.4761,-5.4769,-5.5269,-5.5274,-5.5279,0,0,0,0,0,0,-5.3747,-5.3784,-5.415,-5.4091,-5.4102,-5.4114,-5.4145,-5.4303,-5.4428,-5.4282,-5.4286,-5.4319,-5.4551,-5.4617,-5.4639,-5.4884,-5.473,-5.4744,-5.4753,-5.4759,-5.5273,-5.5278,0,0,0,0,0,0,-5.3764,-5.3796,-5.4087,-5.4096,-5.4106,-5.4309,-5.4256,-5.4506,-5.4376,-5.4274,-5.4366,-5.4362,-5.4546,-5.457,-5.4632,-5.4867,-5.4879,-5.473,-5.474,-5.4746,-5.4751,0,0,0,0,0,0,0,-5.3778,-5.3544,-5.4036,-5.41,-5.4108,-5.4321,-5.4326,-5.4331,-5.4375,-5.4371,-5.4367,-5.4364,-5.4653,-5.4667,-5.4682,-5.4853,0,0,-5.4729,-5.4736,0,0,0,0,0,0,0,0,-5.3532,-5.3541,-5.4037,-5.4041,-5.4044,-5.4322,-5.4326,-5.433,-5.4374,-5.4371,-5.4368,-5.4365,-5.4657,-5.4669,-5.4681,0,0,0,0,0,0,0,0,0,0,0,0,0,0,0,-5.4037,-5.404,0,-5.4323,-5.4326,-5.4329,-5.4374,-5.4371,-5.4369,-5.4366,-5.466,-5.467,-5.468,0,0,0,0,0,0,0,0,0,0,0,0,0,0,0,0,0,0,0,0,0,0,0,0,0,0,0,0,0,0,0,0,0,0,0,0,0,0,0,0,0,0,0,0,0,0,0,0,0,0,0,0,0,0,0,0,0,0,0,0,0,0,0,0,0,0,0,0,0]}],[{"header":{"parameterUnit":"kt","parameterCategory":2,"dx":1,"dy":1,"la1":30.253999710083008,"la2":30.299108505249023,"lo1":-89.0895004272461,"lo2":-89.04439544677734,"nx":28,"ny":28,"refTime":"2022-10-21T21:00:00:Z","depth":0,"parameterNumber":2,"parameterNumberName":"V-component_of_WINDS"},"data":[9.3601,9.3699,9.3689,9.3795,9.3804,9.3873,9.3894,9.392,9.3938,9.4018,9.4061,9.406,9.4072,9.412,9.4165,9.4162,9.418,9.4222,9.4211,9.4037,9.4012,9.3988,9.3963,9.4227,9.4228,9.439,9.4391,9.4393,9.3473,9.3483,9.3538,9.3583,9.3628,9.3582,9.3614,9.3653,9.3716,9.3739,9.3782,9.3851,9.3903,9.3901,9.3948,9.399,9.3969,9.4003,9.3997,9.3999,9.3814,9.3788,9.4019,9.4019,9.4019,9.4019,9.4019,9.4019,9.3235,9.3295,9.3316,9.3375,9.3395,9.3425,9.3478,9.3476,9.3527,9.3578,9.3555,9.3625,9.3644,9.3696,9.371,9.3762,9.3722,9.3754,9.3762,9.3769,9.3778,9.3538,9.3771,9.377,9.3769,9.3769,9.3768,0,9.3056,9.3044,9.3096,9.3145,9.3186,9.3223,9.3253,9.3287,9.3255,9.3298,9.3359,9.3393,9.3457,9.3511,9.3554,9.3561,9.3512,9.3509,9.353,9.3538,9.3541,9.3536,9.3231,9.35,9.3498,9.3496,9.3495,9.3494,9.2811,9.2884,9.2902,9.2939,9.2954,9.3015,9.3048,9.3015,9.3052,9.3083,9.3136,9.3192,9.3234,9.3333,9.3325,9.3372,9.3348,9.3452,9.3355,9.3362,9.3343,9.3338,9.3342,9.3469,9.3472,9.3475,9.3477,0,9.2673,9.2657,9.2765,9.2775,9.278,9.2857,9.2863,9.2921,9.2912,9.2989,9.3004,9.2988,9.3048,9.3024,9.3088,9.3072,9.3192,9.317,9.3184,9.3176,9.3263,9.3253,9.3557,9.3593,9.3324,9.3327,9.3329,0,9.2455,9.2551,9.252,9.2584,9.2689,9.2652,9.2756,9.2758,9.2775,9.2835,9.2779,9.2836,9.2797,9.285,9.2828,9.2922,9.2935,9.2927,9.2919,9.2929,9.293,9.2943,9.2927,9.2905,9.2903,9.2902,9.2901,0,9.2237,9.2334,9.2439,9.2457,9.2477,9.2526,9.2536,9.2555,9.2588,9.2627,9.2647,9.2695,9.272,9.2757,9.2728,9.2662,9.2844,9.2747,9.2834,9.2835,9.2871,9.2868,9.3149,9.2899,9.2898,9.2898,9.2897,0,9.2055,9.2099,9.2254,9.2267,9.2294,9.2363,9.2407,9.2461,9.2485,9.2475,9.2506,9.2463,9.2547,9.2452,9.2565,9.2487,9.2515,9.2516,9.2522,9.2522,9.2416,9.257,9.2845,9.287,9.253,9.2527,9.2524,0,9.1807,9.196,9.193,9.2078,9.2144,9.2075,9.2151,9.2174,9.2167,9.2221,9.2213,9.2274,9.2199,9.2214,9.2274,9.2267,9.2368,9.2253,9.2323,9.2326,9.2314,9.2568,9.2612,9.2789,9.2485,9.2489,9.2492,0,9.1612,9.1637,9.1666,9.1684,9.171,9.1766,9.1854,9.1907,9.1944,9.1978,9.2047,9.2135,9.208,9.2106,9.2076,9.214,9.2298,9.2072,9.2071,9.2109,9.2465,9.2505,9.2535,9.2264,9.2269,9.2272,9.2461,0,9.1333,9.1408,9.1487,9.1533,9.1573,9.1665,9.164,9.1684,9.1651,9.1642,9.1746,9.1758,9.181,9.184,9.1808,9.1963,9.1932,9.1873,9.1774,9.1943,9.2004,9.2029,9.1686,9.1683,9.168,9.1678,0,0,9.1096,9.1204,9.1167,9.1252,9.1282,9.1208,9.1308,9.1329,9.1373,9.1395,9.1341,9.1465,9.1477,9.1605,9.1656,9.168,9.1703,9.1645,9.1864,9.1885,9.1904,9.197,9.1997,9.1674,9.1673,9.1672,9.1671,0,9.0988,9.1007,9.1109,9.1129,9.1158,9.1144,9.1169,9.1183,9.1181,9.1285,9.1218,9.1278,9.138,9.1399,9.1422,9.1631,9.1574,9.165,9.1768,9.184,9.1864,9.1885,9.1955,9.1981,9.1665,9.1665,9.1666,0,9.0787,9.0799,9.0846,9.0916,9.0933,9.1004,9.0896,9.0977,9.1027,9.0938,9.1041,9.1044,9.1069,9.1196,9.1252,9.1203,9.1459,9.1375,9.139,9.1394,9.1461,9.1491,9.1517,9.1172,9.117,9.1169,0,0,9.0696,9.0767,9.0767,9.089,9.0906,9.0886,9.0921,9.0891,9.0917,9.0927,9.0928,9.0953,9.1011,9.105,9.1103,9.1247,9.1246,9.1315,9.1339,9.1358,9.1372,9.1444,9.1474,9.1163,9.1163,9.1162,0,0,9.0651,9.0657,9.062,9.076,9.0787,9.0794,9.0868,9.0822,9.0867,9.0853,9.0804,9.0809,9.0927,9.0932,9.0855,9.1066,9.097,9.0988,9.1057,9.1086,9.1109,9.1103,9.0741,0,0,0,0,0,9.0526,9.0657,9.0623,9.0643,9.0729,9.0814,9.0824,9.0788,9.072,9.078,9.0773,9.0712,9.088,9.081,9.0828,9.0914,9.1084,9.1098,9.1111,9.1235,9.1265,9.1291,0,0,0,0,0,0,9.0533,9.0558,9.0619,9.0633,9.0651,9.0808,9.0685,9.0679,9.0712,9.0699,9.0715,9.0713,9.0682,9.0797,9.0815,9.0897,9.0735,9.109,9.1101,9.1112,9.1245,9.127,9.1292,0,0,0,0,0,9.0539,9.0558,9.0707,9.063,9.0647,9.063,9.068,9.0673,9.0699,9.0689,9.0684,9.0668,9.0685,9.0697,9.0808,9.089,9.0723,9.073,9.1097,9.1107,9.1115,9.1258,0,0,0,0,0,0,9.0543,9.0552,9.0709,9.0713,9.0578,9.062,9.0626,9.0669,9.0685,9.0682,9.0638,9.0628,9.0689,9.0698,9.0708,9.089,9.0713,9.072,9.0724,9.1104,9.1112,9.1118,0,0,0,0,0,0,9.0541,9.0556,9.0711,9.0647,9.0643,9.0612,9.0617,9.0705,9.0686,9.0633,9.0625,9.0634,9.0674,9.0699,9.0706,9.0846,9.0705,9.0712,9.0716,9.0719,9.111,9.1116,0,0,0,0,0,0,9.0547,9.0559,9.0646,9.0643,9.0639,9.0676,9.0689,9.0778,9.0634,9.0634,9.062,9.0613,9.0677,9.0683,9.0706,9.0843,9.0845,9.0705,9.071,9.0713,9.0715,0,0,0,0,0,0,0,9.0551,9.0478,9.0689,9.0639,9.0636,9.0745,9.0746,9.0747,9.0633,9.0627,9.0621,9.0616,9.0668,9.0675,9.0682,9.084,0,0,9.0705,9.0708,0,0,0,0,0,0,0,0,9.0472,9.0477,9.0689,9.0689,9.069,9.0745,9.0746,9.0747,9.0632,9.0627,9.0623,9.0618,9.067,9.0676,9.0681,0,0,0,0,0,0,0,0,0,0,0,0,0,0,0,9.0689,9.0689,0,9.0746,9.0746,9.0747,9.0631,9.0627,9.0624,9.062,9.0671,9.0676,9.0681,0,0,0,0,0,0,0,0,0,0,0,0,0,0,0,0,0,0,0,0,0,0,0,0,0,0,0,0,0,0,0,0,0,0,0,0,0,0,0,0,0,0,0,0,0,0,0,0,0,0,0,0,0,0,0,0,0,0,0,0,0,0,0,0,0,0,0,0,0]}]]]